CDT,Max TemperatureF,Mean TemperatureF,Min TemperatureF,Max Dew PointF,MeanDew PointF,Min DewpointF,Max Humidity, Mean Humidity, Min Humidity, Max Sea Level PressureIn, Mean Sea Level PressureIn, Min Sea Level PressureIn, Max VisibilityMiles, Mean VisibilityMiles, Min VisibilityMiles, Max Wind SpeedMPH, Mean Wind SpeedMPH, Max Gust SpeedMPH,PrecipitationIn, CloudCover, Events, WindDirDegrees
2012-8-1,87,79,71,66,63,61,78,62,46,29.92,29.88,29.84,10,10,7,17,11,23,0.00,0,,292
2012-8-2,84,73,62,64,59,52,94,62,33,29.92,29.90,29.88,10,10,7,8,5,,0.00,0,,344
2012-8-3,86,74,62,66,63,59,94,70,45,29.91,29.84,29.72,10,10,3,37,8,45,0.00,1,,122
2012-8-4,75,68,60,61,56,50,94,72,41,29.90,29.85,29.79,10,9,4,26,9,31,0.00,3,,253
2012-8-5,75,63,51,55,49,45,94,61,36,30.22,30.16,30.10,10,10,1,14,6,18,0.00,0,,247
2012-8-6,86,70,55,64,57,50,88,62,37,30.11,30.04,29.98,10,10,10,13,5,,0.00,0,,194
2012-8-7,82,72,62,64,56,46,88,59,30,30.07,30.03,29.98,10,10,10,12,5,9,0.00,0,,25
2012-8-8,71,66,60,61,58,55,94,78,64,30.06,30.02,29.97,10,10,1,17,7,24,0.51,4,Rain-Thunderstorm,46
2012-8-9,73,66,57,61,55,46,94,69,41,30.17,30.08,30.03,10,10,1,20,7,25,0.00,2,,340
2012-8-10,75,63,51,54,49,43,88,64,31,30.23,30.17,30.12,10,10,10,10,6,17,0.00,0,,57
2012-8-11,73,62,51,55,49,43,88,63,35,30.13,30.09,30.02,10,10,7,13,3,17,0.00,0,,152
2012-8-12,68,62,55,57,53,50,94,77,64,30.06,30.03,30.01,10,10,7,8,1,,0.12,2,Rain,249
2012-8-13,77,67,57,59,53,46,94,66,34,30.07,30.05,30.01,10,10,10,12,7,16,0.00,1,,299
2012-8-14,71,62,53,57,53,48,88,69,49,30.03,29.96,29.87,10,10,10,7,2,,0.00,2,Rain,125
2012-8-15,80,68,57,66,59,52,88,74,57,29.86,29.78,29.71,10,10,7,22,8,28,0.03,4,Rain-Thunderstorm,151
2012-8-16,68,60,51,55,46,39,88,63,37,30.09,29.99,29.86,10,10,10,23,16,31,0.00,4,,306
2012-8-17,71,58,46,48,44,41,93,60,35,30.14,30.10,30.05,10,10,10,10,5,,0.00,0,,307
2012-8-18,77,62,48,50,46,39,87,56,27,30.05,30.02,29.98,10,10,10,14,6,20,0.00,1,,267
2012-8-19,73,62,51,54,49,43,94,62,33,30.08,30.04,30.01,10,10,10,10,5,,0.00,2,,3
2012-8-20,75,62,50,46,42,36,82,49,25,30.06,30.04,30.01,10,10,10,8,2,,0.00,1,,326
2012-8-21,80,66,51,54,48,43,88,58,28,30.07,30.04,29.97,10,10,10,10,3,,0.00,0,,186
2012-8-22,84,68,53,59,53,48,82,60,35,29.98,29.90,29.82,10,10,10,21,9,25,0.00,1,Thunderstorm,122
2012-8-23,82,73,64,66,60,55,94,65,44,29.86,29.82,29.79,10,9,2,20,9,43,0.89,1,Rain-Thunderstorm,161
2012-8-24,89,74,60,66,63,55,94,69,31,29.85,29.82,29.80,10,8,0,15,5,18,0.00,0,Fog,174
2012-8-25,73,70,66,64,63,57,88,80,57,29.95,29.90,29.83,10,9,2,15,10,20,0.01,6,Rain-Thunderstorm,185
2012-8-26,82,71,60,63,56,45,94,65,26,30.08,30.00,29.95,10,7,0,14,5,17,0.00,3,Fog-Rain,249
2012-8-27,80,68,55,59,52,45,88,57,28,30.18,30.13,30.08,10,10,10,8,4,,0.00,0,,335
2012-8-28,86,74,62,66,60,55,83,68,43,30.14,30.05,29.97,10,10,10,16,8,18,0.03,0,Rain-Thunderstorm,100
2012-8-29,87,74,62,64,62,59,94,68,38,29.98,29.87,29.75,10,9,4,14,9,18,0.00,0,,103
2012-8-30,78,69,60,64,58,52,83,64,41,30.00,29.81,29.67,10,10,5,18,8,22,0.00,0,Rain-Thunderstorm,343
2012-8-31,80,68,57,52,46,37,82,49,21,30.16,30.11,30.01,10,10,10,13,7,16,0.00,0,,46